Tracking 21076 objects as of 9-Aug-2020
HD Live streaming from Space Station
objects crossing your sky now
Track the most recent launched group of Starlink satellites

RADUGA 2

Track RADUGA 2 now!
RADUGA 2 is classified as:


NORAD ID: 9416
Int'l Code: 1976-092A
Perigee: 35,676.0 km
Apogee: 35,896.3 km
Inclination: 8.8 °
Period: 1,435.7 minutes
Semi major axis: 42157 km
RCS: 0.1428 m2 (medium)
Launch date: September 11, 1976
Source: Commonwealth of Independent States (former USSR) (CIS)
Launch site: TYURATAM MISSILE AND SPACE COMPLEX (TTMTR)
aabbcc
Your satellite tracking list
Your tracking list is empty




NASA's NSSDC Master Catalog

Two Line Element Set (TLE):
1  9416U 76092A   20221.83098124 -.00000101 +00000-0 +00000-0 0  9999
2  9416 008.8171 299.5695 0026131 337.6802 055.1579 01.00298913107906
Source of the keplerian elements: AFSPC